Powrót do katalogu

CHANG'E 2

AktywnyNaukaLPO
NORAD 37174·PAYLOAD·🇨🇳 China

Wystrzelony Oct 1, 2010 z Xichang Satellite Launch Center

Loading…

TLE

NieaktualneSource: Space-Track

Epoka: Oct 1, 2010, 11:00 UTC

1 37174U 10050A   10274.45839120 +.00001938 -61260-5 +00000-0 0  9996
2 37174 029.1937 170.6532 0010000 104.5682 000.0000 16.01538970000006

Śledź CHANG'E 2 w czasie rzeczywistym z AllMySat

Download on the App Store